Jackson Hawkins Field, MS

9:35 PM CDT on August 17, 2017 (GMT -0500)
Hawkins

Weather History for KHKS - November, 2012

Change the Weather History Date:

Wednesday, November 28, 2012

  Actual Average (KJAN) Record (KJAN)
Temperature  
Mean Temperature 46 °F -  
Max Temperature 59 °F 61 °F 81 °F (1908)
Min Temperature 33 °F 39 °F 16 °F (1938)
Degree Days  
Heating Degree Days 19    
Moisture  
Dew Point 34 °F    
Average Humidity 80    
Maximum Humidity 97    
Minimum Humidity 35    
Precipitation  
Precipitation 0.00 in - - ()
Sea Level Pressure  
Sea Level Pressure 30.39 in    
Wind  
Wind Speed 1 mph (NE)    
Max Wind Speed 7 mph    
Max Gust Speed -    
Visibility 6 miles    
Events      
Averages and records for this station are not official NWS values.
T = Trace of Precipitation, MM = Missing Value Source: NWS Daily Summary

Daily Weather History Graph

Daily Weather History Graph

Search for Another Location

Airport or City:

Trip Planner

Search our weather history database for the weather conditions in past years. The results will help you decide how hot, cold, wet, or windy it might be!

Date:

Astronomy

Nov. 28, 2012 Rise Set
Actual Time 6:42 AM CST 4:55 PM CST
Civil Twilight 6:15 AM CST 5:22 PM CST
Nautical Twilight 5:45 AM CST 5:52 PM CST
Astronomical Twilight 5:15 AM CST 6:22 PM CST
Moon 5:11 PM CST (11/28) 6:39 AM CST (11/28)
Length of Visible Light 11h 06m
Length of Day
10h 13m
Full, 100% of the Moon is Illuminated
Nov 28
Full
Dec 6
Last Quarter
Dec 13
New
Dec 19
First Quarter
Dec 28
Full

Hourly Weather History & Observations

Time (CST) Temp. Windchill Dew Point Humidity Pressure Visibility Wind Dir Wind Speed Gust Speed Precip Events Conditions
12:53 AM 37.0 °F - 36.0 °F 96% 30.34 in 4.0 mi Calm Calm - N/A   Clear
1:53 AM 36.0 °F - 35.1 °F 97% 30.35 in 3.0 mi Calm Calm - N/A   Clear
2:08 AM 35.6 °F - 33.8 °F 93% 30.36 in 2.0 mi Calm Calm - N/A   Clear
2:37 AM 35.6 °F - 33.8 °F 93% 30.37 in 3.0 mi Calm Calm - N/A   Clear
2:53 AM 36.0 °F - 34.0 °F 93% 30.36 in 4.0 mi Calm Calm - N/A   Clear
3:07 AM 35.6 °F - 33.8 °F 93% 30.37 in 2.5 mi Calm Calm - N/A   Clear
3:16 AM 35.6 °F - 33.8 °F 93% 30.37 in 3.0 mi Calm Calm - N/A   Clear
3:53 AM 36.0 °F - 34.0 °F 93% 30.37 in 5.0 mi Calm Calm - N/A   Clear
4:46 AM 35.6 °F - 33.8 °F 93% 30.38 in 4.0 mi Calm Calm - N/A   Scattered Clouds
4:53 AM 36.0 °F - 34.0 °F 93% 30.37 in 4.0 mi Calm Calm - N/A   Scattered Clouds
5:53 AM 34.0 °F - 33.1 °F 96% 30.39 in 4.0 mi Calm Calm - N/A   Partly Cloudy
6:08 AM 35.6 °F - 33.8 °F 93% 30.41 in 4.0 mi Calm Calm - N/A   Mostly Cloudy
6:39 AM 35.6 °F - 33.8 °F 93% 30.42 in 2.5 mi Calm Calm - N/A   Scattered Clouds
6:53 AM 35.1 °F - 33.1 °F 92% 30.42 in 2.0 mi Calm Calm - N/A   Partly Cloudy
7:09 AM 33.8 °F - 32.0 °F 93% 30.43 in 1.0 mi Calm Calm - N/A   Clear
7:35 AM 35.6 °F - 33.8 °F 93% 30.44 in 2.5 mi Calm Calm - N/A   Clear
7:53 AM 36.0 °F - 34.0 °F 93% 30.44 in 2.0 mi Calm Calm - N/A   Clear
8:16 AM 39.2 °F 35.9 °F 35.6 °F 87% 30.46 in 3.0 mi ENE 4.6 mph - N/A   Clear
8:53 AM 42.1 °F 40.2 °F 37.0 °F 82% 30.47 in 5.0 mi NNE 3.5 mph - N/A   Haze
9:53 AM 46.9 °F - 37.9 °F 71% 30.48 in 8.0 mi East 6.9 mph - N/A   Clear
10:53 AM 50.0 °F - 35.1 °F 57% 30.46 in 10.0 mi Variable 3.5 mph - N/A   Clear
11:53 AM 53.1 °F - 33.1 °F 47% 30.43 in 10.0 mi Variable 3.5 mph - N/A   Clear
12:53 PM 55.0 °F - 34.0 °F 45% 30.40 in 10.0 mi Calm Calm - N/A   Clear
1:53 PM 57.0 °F - 30.0 °F 36% 30.37 in 10.0 mi ENE 4.6 mph - N/A   Clear
2:53 PM 59.0 °F - 30.9 °F 35% 30.36 in 10.0 mi Variable 3.5 mph - N/A   Clear
3:53 PM 57.9 °F - 30.9 °F 36% 30.36 in 10.0 mi NE 3.5 mph - N/A   Clear
4:53 PM 55.0 °F - 33.1 °F 43% 30.36 in 10.0 mi Calm Calm - N/A   Clear
5:53 PM 45.0 °F - 37.0 °F 74% 30.36 in 10.0 mi Calm Calm - N/A   Clear
6:53 PM 44.1 °F - 37.0 °F 76% 30.37 in 5.0 mi Calm Calm - N/A   Haze
7:53 PM 42.1 °F - 37.0 °F 82% 30.37 in 10.0 mi Calm Calm - N/A   Clear
8:53 PM 41.0 °F - 36.0 °F 82% 30.37 in 10.0 mi Calm Calm - N/A   Clear
9:53 PM 39.0 °F - 36.0 °F 89% 30.37 in 10.0 mi Calm Calm - N/A   Clear
10:53 PM 37.9 °F - 35.1 °F 89% 30.37 in 10.0 mi Calm Calm - N/A   Clear
11:53 PM 36.0 °F - 34.0 °F 93% 30.36 in 8.0 mi Calm Calm - N/A   Clear